User: anonymous   Login
Location: Caseificio
(44.7500°N, 11.0500°E)
Time: 09:07:42
(UTC+00:00)
Language:

Cosmos 2074 Rocket - Orbit

View from above orbital plane
View from above orbital plane
View from above satellite
View from above satellite

Ground track
Ground track

The orbit data is extracted from the following two-line orbital elements,

1 20578U 90036B   22227.74740076 -.00000038  00000-0 -54476-4 0  9993
2 20578  82.9419  40.0375 0014157 103.1699 284.2697 13.76423607623078
Epoch (UTC): 15 August 2022 17:56:15
Eccentricity: 0.0014157
inclination: 82.9419°
perigee height: 966 km
apogee height: 987 km
right ascension of ascending node: 40.0375°
argument of perigee: 103.1699°
revolutions per day: 13.76423607
mean anomaly at epoch: 284.2697°
orbit number at epoch: 62307

The dashed part of the orbit path shows where the satellite is in the earth's shadow,  

DLR